Regional Weather Roundup
Issued by NWS

Home | Current Version | Previous Version | Graphics & Text | Print | Product List | Glossary Off
Versions: 1 2 3 4 5 6 7 8 9 10 11 12 13 14 15 16 17 18 19 20 21 22 23 24 25 26 27 28 29 30 31 32 33 34 35 36 37 38 39 40 41 42 43 44 45 46 47 48 49 50

000
ASUS43 KDMX 222107
RWRIA

WEATHER ROUNDUP FOR IOWA
NATIONAL WEATHER SERVICE DES MOINES IA
400 PM CDT FRI AUG 22 2014

NOTE: "FAIR" INDICATES FEW OR NO CLOUDS BELOW 12,000 FEET WITH NO
SIGNIFICANT WEATHER AND/OR OBSTRUCTIONS TO VISIBILITY.

* - THESE STATIONS ARE NOT NWS STATIONS...THUS NOT UNDER NWS
QUALITY CONTROL.  THEY ALSO DO NOT REPORT WEATHER SUCH
AS PRECIPITATION OR FOG.

IAZ001>003-012>014-020>022-031>034-043>046-222200-
   NORTHWEST IOWA

CITY           SKY/WX    TMP DP  RH WIND       PRES   REMARKS
CARROLL *      MOSUNNY   82  77  83 E8        29.93F HX  91
CHEROKEE *     PTSUNNY   84  75  74 NE7       29.95S HX  92
DENISON *      SUNNY     84  79  84 NE8       29.91R HX  96
LE MARS *      MOSUNNY   84  75  74 NE8G15    29.95S HX  92
ORANGE CITY *  MOSUNNY   86  70  58 E10       29.96F HX  90
SHELDON *      PTSUNNY   81  73  78 E8        29.97S HX  85
SIOUX CITY     MOSUNNY   89  74  60 NE9       29.92F HX  98
SPENCER        CLOUDY    81  72  74 NE6       29.97F HX  85
STORM LAKE *   MOSUNNY   82  79  89 NE10      29.96S HX  93
$$

IAZ055>058-069>071-079>083-090>094-222200-
   SOUTHWEST IOWA

CITY           SKY/WX    TMP DP  RH WIND       PRES   REMARKS
ATLANTIC *     MOSUNNY   88  75  66 S3        29.92R HX  97
AUDUBON *      SUNNY     88  81  79 E7        29.94R HX 105
CLARINDA *     SUNNY     81  73  78 S5        29.96S HX  85
COUNCIL BLFS * MOSUNNY   88  81  79 SE7       29.90S HX 105
CRESTON *      MOSUNNY   82  77  83 S9        29.96R HX  91
HARLAN  *      MOSUNNY   86  77  74 VRB5      29.96R HX  97
LAMONI         CLOUDY    84  75  74 SW7       29.95R HX  92
RED OAK *      MOSUNNY   84  75  74 S9G18     29.93R HX  92
SHENANDOAH *   SUNNY     81  75  83 S10       29.95R HX  86
$$

IAZ047>049-059>061-072>074-084-222200-
   CENTRAL IOWA

CITY           SKY/WX    TMP DP  RH WIND       PRES   REMARKS
AMES           MOSUNNY   86  77  74 S5        29.92S HX  97
ANKENY *       SUNNY     86  75  70 CALM      29.92S HX  95
CHARITON *     SUNNY     86  77  74 S7        29.93R HX  97
DES MOINES     CLOUDY    88  77  69 NE7       29.91S HX 100
GRINNELL*      CLOUDY    79  73  83 CALM      29.93R HX  82
KNOXVILLE *    SUNNY     88  77  70 SE5       29.90F HX 100
MARSHALLTOWN   PTSUNNY   88  75  65 VRB3      29.92F HX  97
PELLA *        PTSUNNY   88  77  70 E3        29.92F HX 100
PERRY *          N/A     82  73  74 E3        29.93S HX  88
$$

IAZ004>006-015-016-023>025-035-036-222200-
   NORTH CENTRAL IOWA

CITY           SKY/WX    TMP DP  RH WIND       PRES   REMARKS
ALGONA *       MOSUNNY   84  75  74 NE7       29.96S HX  92
CLARION *      MOSUNNY   84  77  79 VRB6      29.94S HX  94
ESTHERVILLE    MOSUNNY   82  71  69 NE3       29.97S HX  86
FORT DODGE *   SUNNY     84  73  70 N6        29.94F HX  91
MASON CITY     MOSUNNY   86  73  65 NE3       29.96F HX  93
FOREST CITY *  PTSUNNY   86  72  62 NE6       29.96S HX  92
IOWA FALLS *   LGT RAIN  82  75  78 CALM      29.94S HX  89
$$

IAZ007>011-017>019-026>030-037>042-050>054-066-222200-
   NORTHEAST IOWA

CITY           SKY/WX    TMP DP  RH WIND       PRES   REMARKS
CEDAR RAPIDS   PTSUNNY   82  76  81 SW3       29.92S HX  89
CHARLES CITY * SUNNY     82  75  78 N5        29.95S HX  89
CLINTON *      PTSUNNY   84  75  74 W6        29.96R HX  92
DECORAH *      PTSUNNY   82  77  83 NW7       29.94R HX  91
DUBUQUE        MOSUNNY   86  77  74 SW5       29.94R HX  97
MONTICELLO *   PTSUNNY   88  77  70 SW10      29.92S HX 100
OELWEIN *      PTSUNNY   88  77  70 S6        29.94R HX 100
WATERLOO       MOSUNNY   89  73  59 S7        29.90S HX  97
$$

IAZ064-065-067-068-078-222200-
   EAST CENTRAL IOWA

CITY           SKY/WX    TMP DP  RH WIND       PRES   REMARKS
DAVENPORT      SUNNY     85  71  63 SW10      29.93S HX  90
IOWA CITY      PTSUNNY   84  75  74 SW5       29.93S HX  92
MT. PLEASANT * MOSUNNY   86  73  66 S7        29.92F HX  93
MUSCATINE *    MOSUNNY   86  77  74 SW7       29.92S HX  97
QUAD CITIES    MOSUNNY   88  72  58 W8        29.92S HX  94
$$

IAZ062-063-075>077-085>089-095>099-222200-
   SOUTHEAST IOWA

CITY           SKY/WX    TMP DP  RH WIND       PRES   REMARKS
BURLINGTON     MOSUNNY   86  78  77 SW7       29.92S HX  98
FAIRFIELD *    MOSUNNY   84  75  74 S5        29.92F HX  92
FORT MADISON * MOSUNNY   88  79  74 SW5       29.94R HX 102
KEOKUK *       MOSUNNY   86  77  74 SW12      29.92R HX  97
OSKALOOSA *      N/A     88  79  74 SE5       29.92F HX 102
CENTERVILLE *  MOSUNNY   86  79  79 CALM      29.95R HX  99
OTTUMWA        PTSUNNY   85  76  74 S3        29.90F HX  94
WASHINGTON *   SUNNY     86  77  74 S6        29.91F HX  97
$$

ABBREVIATIONS USED IN REMARKS
   TC - TEMPERATURES IN CELSIUS
  WCI - WIND CHILL INDEX
   HX - HEAT INDEX
  VSB - VISIBILITY
$$



USA.gov is the U.S. government's official web portal to all federal, state and local government web resources and services.